Regional Weather Roundup
Issued by NWS

Home | Current Version | Previous Version | Graphics & Text | Print | Product List | Glossary On
Versions: 1 2 3 4 5 6 7 8 9 10 11 12 13 14 15 16 17 18 19 20 21 22 23 24 25 26 27 28 29 30 31 32 33 34 35 36 37 38 39 40 41 42 43 44 45 46 47 48 49 50
000
ASUS43 KBIS 251601
RWRND

NORTH DAKOTA REGIONAL WEATHER ROUNDUP
NATIONAL WEATHER SERVICE BISMARCK ND
1100 AM CDT MON MAY 25 2015

NOTE: "FAIR" INDICATES FEW OR NO CLOUDS BELOW 12,000 FEET WITH NO
SIGNIFICANT WEATHER AND/OR OBSTRUCTIONS TO VISIBILITY.


NDZ001>003-009>011-017-251700-
NORTHWEST NORTH DAKOTA

CITY           SKY/WX    TMP DP  RH WIND       PRES   REMARKS
WILLISTON      CLOUDY    69  45  41 CALM      29.88S
MINOT          PTSUNNY   69  49  48 N6        29.85F
MINOT AFB      MOSUNNY   74  51  43 NE6       29.83F
$$

NDZ018>021-031>035-040>046-251700-
SOUTHWEST NORTH DAKOTA

CITY           SKY/WX    TMP DP  RH WIND       PRES   REMARKS
BISMARCK       LGT RAIN  60  55  83 NE7       29.86F
DICKINSON      CLOUDY    56  53  90 E8        29.88S
GARRISON         N/A     66  51  58 N5        29.86S
HETTINGER ARPT LGT RAIN  54  52  93 NE10      29.88S
$$

NDZ004>008-012>016-024-026-027-054-251700-
NORTHEAST NORTH DAKOTA

CITY           SKY/WX    TMP DP  RH WIND       PRES   REMARKS
GRAND FORKS    CLOUDY    64  50  60 NW8       29.76F
GRND FRKS AFB  CLOUDY    65  48  55 N10       29.77F
DEVILS LAKE    CLOUDY    68  48  49 N7        29.80F
$$

NDZ022-023-025-028>030-036>039-047>053-251700-
SOUTHEAST NORTH DAKOTA

CITY           SKY/WX    TMP DP  RH WIND       PRES   REMARKS
FARGO          LGT RAIN  61  57  87 N7        29.77S
JAMESTOWN      CLOUDY    63  56  78 N6        29.81S
$$



USA.gov is the U.S. government's official web portal to all federal, state and local government web resources and services.